Simultaneous Nadir Overpasses (SNOs) Predictions

Prediction of SNOs between GOES-17 and METOP-A Satellite Orbit:

Table of predicted SNOs for the next 14.0 days since TLE Epoch: 4/17/2020
Index Date Time (GOES-17) GOES-17 Lat,Lon METOP-A Lat,Lon Distance(km) Time Diff (sec)
1 04/18/2020 05:47:38 -0.03,-137.18 0.20,-136.01 132.41 80
2 04/19/2020 18:06:30 0.03,-137.20 0.77,-140.61 388.68 80
3 04/20/2020 17:45:51 0.03,-137.20 -0.33,-135.63 178.76 80
4 04/22/2020 06:07:31 -0.03,-137.18 -0.72,-140.26 350.68 80
5 04/23/2020 05:44:12 -0.03,-137.17 0.39,-135.27 216.34 80
6 04/24/2020 18:03:03 0.03,-137.18 0.64,-139.86 305.93 80
7 04/25/2020 17:45:04 0.03,-137.17 -0.46,-134.88 260.59 80
8 04/27/2020 06:04:05 -0.02,-137.14 -0.52,-139.52 270.45 80
9 04/28/2020 05:40:44 -0.02,-137.13 0.52,-134.53 295.44 80
10 04/29/2020 17:59:37 0.02,-137.12 0.45,-139.13 228.69 80
11 04/30/2020 17:41:37 0.01,-137.10 -0.66,-134.15 336.75 80




NCC Satellite Simultaneous Nadir Overpasses (SNOs) Prediction Service
